Date,TemperatureHighF,TemperatureAvgF,TemperatureLowF,DewpointHighF,DewpointAvgF,DewpointLowF,HumidityHigh,HumidityAvg,HumidityLow,PressureMaxIn,PressureMinIn,WindSpeedMaxMPH,WindSpeedAvgMPH,GustSpeedMaxMPH,PrecipitationSumIn
2013-2-1,71.7,63.5,56.4,46.1,38.3,33.8,52,40,28,30.05,29.98,14,3,20,0.00
2013-2-2,74.0,65.2,58.2,45.8,38.3,33.8,54,38,23,30.08,29.98,12,3,21,0.00
2013-2-3,75.2,64.5,55.3,45.7,42.3,36.9,68,46,26,30.03,29.86,11,4,22,0.00
2013-2-4,71.5,57.3,48.2,51.0,45.0,36.0,96,65,44,29.97,29.84,12,2,20,0.00
2013-2-5,56.8,50.9,48.9,50.7,48.9,47.8,97,93,79,29.97,29.87,9,2,14,0.00
2013-2-6,58.6,51.9,47.0,48.9,47.1,44.1,97,85,69,29.99,29.89,10,4,17,0.00
2013-2-7,56.3,49.5,43.5,48.4,44.9,41.9,96,85,72,30.03,29.87,11,3,18,0.01
2013-2-8,49.5,45.4,41.0,44.7,38.8,35.8,93,78,61,29.87,29.75,22,3,27,0.05
2013-2-9,53.6,45.8,35.7,40.5,36.1,32.5,91,70,46,29.99,29.82,14,3,16,0.00
2013-2-10,53.5,45.8,39.3,41.9,39.1,35.4,88,78,62,29.99,29.90,13,2,18,0.00
2013-2-11,59.7,48.8,38.1,39.9,31.4,13.2,93,57,16,30.12,29.95,10,2,20,0.00
2013-2-12,61.1,49.6,41.1,41.3,26.3,16.8,70,41,19,30.23,30.11,13,2,20,0.00
2013-2-13,66.7,52.8,42.4,39.1,32.9,26.6,61,48,25,30.15,30.02,14,2,18,0.00
2013-2-14,71.4,58.0,44.9,39.8,34.8,30.7,65,44,24,30.08,29.95,13,2,17,0.00
2013-2-15,75.2,67.1,58.2,33.7,25.0,18.6,38,21,12,30.06,30.00,16,3,19,0.00
2013-2-16,77.9,67.1,58.6,25.9,16.7,10.7,22,15,9,30.04,29.84,13,3,16,0.00
2013-2-17,64.9,55.9,47.3,49.4,36.1,17.7,89,52,20,29.90,29.78,15,4,18,0.00
2013-2-18,58.7,52.0,49.2,47.0,45.4,44.2,88,79,60,29.94,29.82,15,3,22,0.00
2013-2-19,50.8,48.1,43.0,45.3,41.6,38.5,90,78,69,29.86,29.60,11,4,20,0.23
2013-2-20,56.2,47.3,38.7,38.7,29.4,23.7,85,52,30,29.88,29.59,25,11,46,0.00
2013-2-21,60.0,49.1,39.8,41.0,35.1,30.1,84,60,35,29.99,29.86,14,4,23,0.00
2013-2-22,62.1,51.4,42.5,40.6,33.3,29.5,66,51,33,30.08,29.98,16,4,22,0.00
2013-2-23,59.1,51.7,40.5,46.9,36.4,31.3,82,57,39,30.05,29.80,26,6,38,0.00
2013-2-24,62.4,54.5,49.5,32.8,18.4,4.3,49,26,11,30.07,29.89,17,6,37,0.00
2013-2-25,65.2,53.3,45.7,41.1,22.4,10.4,77,33,15,30.10,29.94,16,3,23,0.00
2013-2-26,70.8,56.1,42.0,38.1,28.6,13.3,74,39,16,30.00,29.86,12,2,22,0.00
2013-2-27,72.5,62.3,52.0,29.1,13.7,9.3,28,15,9,30.14,30.01,21,5,29,0.00
2013-2-28,75.8,64.6,54.3,30.5,14.9,7.2,27,15,10,30.19,30.11,15,5,18,0.00